P/2010 A5 ( LINEAR ) 2021

Japanese version
Home page
Updated on January 17, 2021

---------------------------------------------------------------------

* Profile

* Orbital Elements

Epoch 2021 Nov. 2.0 TT = JDT 2459520.5                                          
T 2021 Oct. 17.56738 TT                                 Rudenko                 
q   1.7028933            (2000.0)            P               Q                  
n   0.08609259     Peri.  307.10085     -0.70604430     +0.70105570             
a   5.0795533      Node   277.65713     -0.61346595     -0.67610725             
e   0.6647553      Incl.    5.79747     -0.35378096     -0.22671544             
P  11.4                                                                         
From 677 observations 2010 Jan. 14-2020 Dec. 23, mean residual 0".6.            

* Magnitudes Graph

        m1 = 11.0 + 5 log d + 18.0 log r(t + 15)

---------------------------------------------------------------------

The orbital elements are published on M.P.E.C. 2021-A190.
The magnitudes graphs are made with Comet for Windows.

---------------------------------------------------------------------

Copyright(C) Seiichi Yoshida (comet@aerith.net). All rights reserved.